Montgomery, NY

6:19 PM EST on February 23, 2018 (GMT -0500)
Orange County

Weather History for KMGJ - October, 2013

Change the Weather History Date:

Sunday, October 6, 2013

  Actual Average (KSWF) Record (KSWF)
Temperature  
Mean Temperature 62 °F -  
Max Temperature 64 °F 63 °F 86 °F (2007)
Min Temperature 59 °F 42 °F 22 °F (1984)
Degree Days  
Heating Degree Days 4    
Growing Degree Days 12 (Base 50)    
Moisture  
Dew Point 59 °F    
Average Humidity 94    
Maximum Humidity 100    
Minimum Humidity 88    
Precipitation  
Precipitation 0.50 in - - ()
Sea Level Pressure  
Sea Level Pressure 30.08 in    
Wind  
Wind Speed 4 mph (NNE)    
Max Wind Speed 7 mph    
Max Gust Speed -    
Visibility 5 miles    
Events Rain    
Averages and records for this station are not official NWS values.
T = Trace of Precipitation, MM = Missing Value Source: NWS Daily Summary

Daily Weather History Graph

Daily Weather History Graph

Search for Another Location

Airport or City:

Trip Planner

Search our weather history database for the weather conditions in past years. The results will help you decide how hot, cold, wet, or windy it might be!

Date:

Astronomy

Oct. 06, 2013 Rise Set
Actual Time 6:59 AM EDT 6:30 PM EDT
Civil Twilight 6:31 AM EDT 6:57 PM EDT
Nautical Twilight 5:59 AM EDT 7:29 PM EDT
Astronomical Twilight 5:27 AM EDT 8:01 PM EDT
Moon 8:42 AM EDT (10/6) 7:25 PM EDT (10/6)
Length of Visible Light 12h 26m
Length of Day
11h 30m
Waxing Crescent, 3% of the Moon is Illuminated
Oct 6
Waxing Crescent
Oct 11
First Quarter
Oct 18
Full
Oct 26
Last Quarter
Nov 3
New

Hourly Weather History & Observations

Time (EDT) Temp. Dew Point Humidity Pressure Visibility Wind Dir Wind Speed Gust Speed Precip Events Conditions
12:54 AM 61.0 °F 59.0 °F 93% 30.08 in 9.0 mi NNE 3.5 mph - N/A   Overcast
1:54 AM 61.0 °F 59.0 °F 93% 30.08 in 8.0 mi NNE 5.8 mph - N/A   Overcast
2:37 AM 60.8 °F 59.0 °F 94% 30.08 in 7.0 mi North 5.8 mph - N/A   Overcast
2:54 AM 60.1 °F 57.9 °F 93% 30.07 in 8.0 mi NNE 5.8 mph - N/A   Overcast
3:54 AM 60.1 °F 57.9 °F 93% 30.06 in 7.0 mi NNE 4.6 mph - N/A   Overcast
4:54 AM 59.0 °F 57.9 °F 96% 30.07 in 4.0 mi North 4.6 mph - 0.00 in Rain Light Rain
5:40 AM 59.0 °F 57.2 °F 94% 30.07 in 2.5 mi North 3.5 mph - 0.00 in Rain Light Rain
5:54 AM 59.0 °F 57.9 °F 96% 30.07 in 1.5 mi North 4.6 mph - 0.00 in   Overcast
6:40 AM 59.0 °F 57.2 °F 94% 30.08 in 2.0 mi North 6.9 mph - 0.10 in Rain Heavy Rain
6:49 AM 59.0 °F 57.2 °F 94% 30.08 in 1.8 mi Calm Calm - 0.22 in Rain Heavy Rain
6:54 AM 59.0 °F 57.9 °F 96% 30.08 in 1.5 mi Calm Calm - 0.29 in Rain Heavy Rain
7:08 AM 59.0 °F 57.2 °F 94% 30.07 in 2.5 mi East 3.5 mph - 0.09 in Rain Heavy Rain
7:18 AM 59.0 °F 59.0 °F 100% 30.08 in 4.0 mi Calm Calm - 0.12 in Rain Rain
7:24 AM 60.8 °F 57.2 °F 88% 30.08 in 5.0 mi Calm Calm - 0.12 in Rain Light Rain
7:54 AM 60.1 °F 59.0 °F 96% 30.08 in 5.0 mi Calm Calm - 0.19 in Rain Light Rain
7:57 AM 60.8 °F 59.0 °F 94% 30.08 in 6.0 mi Calm Calm - 0.00 in Rain Light Rain
8:10 AM 59.0 °F 57.2 °F 94% 30.08 in 7.0 mi North 5.8 mph - 0.01 in Rain Light Rain
8:54 AM 60.1 °F 59.0 °F 96% 30.09 in 9.0 mi NNE 4.6 mph - 0.01 in   Overcast
9:54 AM 61.0 °F 59.0 °F 93% 30.10 in 5.0 mi NNE 4.6 mph - N/A   Overcast
10:19 AM 60.8 °F 59.0 °F 94% 30.11 in 2.5 mi North 4.6 mph - N/A   Overcast
10:54 AM 61.0 °F 60.1 °F 97% 30.11 in 2.0 mi North 4.6 mph - N/A   Overcast
11:24 AM 60.8 °F 59.0 °F 94% 30.11 in 3.0 mi North 5.8 mph - N/A   Overcast
11:54 AM 61.0 °F 59.0 °F 93% 30.10 in 4.0 mi NNE 4.6 mph - N/A   Overcast
12:54 PM 62.1 °F 60.1 °F 93% 30.09 in 4.0 mi North 3.5 mph - N/A   Overcast
1:25 PM 62.6 °F 60.8 °F 94% 30.08 in 6.0 mi North 4.6 mph - N/A   Overcast
1:54 PM 64.0 °F 63.0 °F 96% 30.08 in 10.0 mi Calm Calm - N/A   Overcast
2:05 PM 64.4 °F 62.6 °F 94% 30.08 in 10.0 mi East 5.8 mph - N/A   Overcast
2:54 PM 64.0 °F 62.1 °F 93% 30.08 in 5.0 mi East 6.9 mph - N/A   Overcast
3:54 PM 63.0 °F 62.1 °F 97% 30.08 in 4.0 mi East 5.8 mph - N/A   Overcast
4:54 PM 63.0 °F 61.0 °F 93% 30.07 in 7.0 mi ENE 4.6 mph - N/A   Overcast
5:54 PM 63.0 °F 61.0 °F 93% 30.07 in 5.0 mi East 4.6 mph - N/A   Overcast
6:54 PM 62.1 °F 61.0 °F 96% 30.07 in 5.0 mi ENE 3.5 mph - N/A   Overcast
7:21 PM 62.6 °F 60.8 °F 94% 30.07 in 3.0 mi NE 5.8 mph - N/A   Overcast
7:54 PM 62.1 °F 60.1 °F 93% 30.07 in 3.0 mi NNE 5.8 mph - N/A   Overcast
8:54 PM 62.1 °F 60.1 °F 93% 30.06 in 3.0 mi NNE 5.8 mph - N/A   Overcast
9:54 PM 62.1 °F 60.1 °F 93% 30.06 in 3.0 mi North 6.9 mph - N/A   Overcast
10:15 PM 62.6 °F 60.8 °F 94% 30.05 in 2.5 mi North 5.8 mph - N/A   Overcast
10:54 PM 61.0 °F 60.1 °F 97% 30.05 in 2.0 mi North 5.8 mph - 0.01 in   Overcast
11:05 PM 60.8 °F 60.8 °F 100% 30.04 in 2.5 mi North 6.9 mph - N/A   Overcast
11:49 PM 62.6 °F 60.8 °F 94% 30.04 in 3.0 mi Calm Calm - N/A   Overcast